sat.trackr.live / text

‹ back to catalog

STARLINK-34036

NORAD 63945 · 2025-098V

PAYLOAD ACTIVE UNKNOWN

§ Identity

Operator
Country
US
Launch date
2025-05-13
Launch site
AFWTR
Launch vehicle
Mass (kg)
RCS (m²)

Purposes: comms

External: N2YO · Heavens-Above · Gunter

§ Orbital elements

Epoch: 2026-05-25T02:11:43.698336Z

Period
96.11 min
Inclination
70.0011°
Eccentricity
0.0003098
Mean motion
14.98334970 rev/d
Perigee alt
569.9 km
Apogee alt
574.2 km
Semi-major
6,950.2 km
B*
2.4643e-4
RAAN
81.9464°
Arg perigee
266.9817°
Mean anomaly
93.0987°
Rev number
5,799

§ Raw data

STARLINK-340361 63945U 25098V   26145.09147799  .00002849  00000+0  24643-3 0  99992 63945  70.0011  81.9464 0003098 266.9817  93.0987 14.98334970 57993

JSON: /api/v1/satellites/63945 · /tle

For live sub-satellite position, see the globe view (requires WebGL).

§ Visibility from observer

Set your observer location to see the next 7 days of passes ≥ 10°. The values pass through the URL so the page stays shareable.

No JS? Fill the form by hand. The geolocation button needs JavaScript.